SCP
-0 -1 -1 -0 -0 -0 -1 -1 -1 -1 -1 -1 -1 -1 -0 -0 -0 -0 -0 -0 -0 -0 -0 -0 -0 -0 0 -0 -0 -0 0 0 0 0 0 0 0 -0 -0 -0 -0 -0 -0
-0 -1 -1 -0 -0 -0 -0 -1 -1 -1 -1 -1 -1 -1 -0 -0 -0 -0 -0 -0 -0 -0 -0 -0 -0 -0 -0 -0 -0 -0 -0 -0 0 0 0 0 -0 -0 -0 -0 -0 -0 -0
-0 -0 -0 -0 -1 -0 -1 -1 -1 -1 -1 -1 -1 -1 -0 -0 -0 -0 -0 -0 -0 -0 -0 -0 -0 -0 -0 -0 -0 -0 -0 0 0 0 0 -0 0 -0 -0 -0 -0 -0 -0
0 0 -0 -0 -0 -1 -0 -1 -1 -1 -1 -1 -1 -0 -0 -0 -0 -0 -0 -0 -0 -0 -0 -0 -0 -0 -0 -0 -0 -0 0 0 0 0 -0 -0 0 -0 -0 -0 -0 -0 -0
0 0 0 0 -0 -0 -0 -0 -1 -1 -1 -1 -1 -0 -0 -0 -0 -0 -0 -0 -0 -0 -0 -0 -0 -0 -0 -0 -0 -0 0 0 0 -0 -0 -0 -0 0 0 0 0 0 -0
0 0 0 0 0 -0 -0 -0 -0 -0 -0 -0 -0 -0 -0 -0 -0 -0 -0 -0 -0 -0 -0 -0 -0 -0 -0 -0 -0 0 0 -0 -0 -0 -0 -0 -0 0 0 -0 -0 -0 0
0 0 0 0 0 0 -0 -0 -0 -0 -0 -0 -0 -0 0 0 0 0 0 0 0 0 0 0 0 0 0 0 0 0 0 -0 -0 0 -0 -0 -0 0 0 0 -0 -0 -0
0 0 0 0 0 0 0 0 0 0 0 0 -0 0 0 0 0 0 0 0 0 0 0 0 0 0 0 0 0 0 0 -0 0 0 0 0 0 0 0 0 0 0 0
0 1 0 0 0 1 1 1 0 0 0 0 0 0 0 0 0 0 0 0 0 0 0 0 0 0 0 0 0 0 0 0 0 0 0 0 0 0 0 0 0 0 0
1 1 1 0 0 0 0 1 1 1 0 0 0 0 0 0 0 0 0 0 0 0 0 0 0 0 0 0 0 0 0 0 0 0 0 0 0 0 0 0 0 0 0
1 1 1 0 0 0 0 1 1 1 1 0 0 0 0 0 0 0 0 0 0 0 0 0 0 0 0 0 0 0 0 0 0 0 0 0 0 0 0 0 0 0 1
1 1 1 1 0 0 0 1 0 0 0 0 0 0 0 0 0 0 0 0 0 0 0 0 0 0 0 0 0 0 0 0 0 0 0 0 0 0 0 0 0 0 1
2 1 1 1 0 0 0 1 0 0 0 0 0 0 0 0 0 0 0 0 0 0 0 0 0 0 0 0 0 0 0 0 0 0 0 0 0 0 0 0 0 0 1
1 1 1 0 0 0 0 1 1 1 1 0 0 0 0 0 0 0 0 0 0 0 0 0 0 0 0 0 0 0 0 0 0 0 0 0 0 0 0 0 0 1 1
1 1 1 1 1 0 0 1 1 1 1 1 1 1 0 0 0 0 0 0 0 0 0 0 0 0 0 0 0 0 0 0 0 0 0 0 0 0 0 0 0 0 1
1 1 1 1 1 0 1 1 1 1 1 1 1 1 0 1 1 1 1 0 0 0 0 0 0 0 1 1 0 0 0 0 0 0 0 1 0 0 0 0 0 0 1
1 1 1 1 1 0 1 1 1 1 1 1 1 1 1 1 1 1 1 1 0 1 1 2 2 1 1 1 1 1 1 0 0 0 1 1 1 0 0 0 0 0 0
1 1 1 1 1 1 1 2 2 2 1 1 1 1 1 1 1 1 1 1 1 2 2 3 2 2 3 2 1 1 0 0 0 0 0 0 0 0 1 0 0 0 0
1 1 1 1 1 1 2 2 1 2 1 1 1 1 2 2 2 2 3 3 2 2 2 2 2 1 1 3 2 0 0 0 0 0 0 0 0 0 0 0 0 0 0
1 1 1 2 2 3 3 4 2 2 2 2 3 4 3 4 3 3 2 2 1 1 0 1 2 2 2 1 -0 -0 0 0 0 0 0 0 0 0 0 0 0 0 -0
1 1 2 2 4 6 4 3 3 2 3 4 3 3 2 2 1 1 1 0 0 0 0 1 1 2 0 -0 -0 -0 0 0 0 0 0 0 0 0 0 0 0 0 0
0 1 1 2 4 4 3 2 4 3 3 3 3 2 1 1 1 0 0 0 0 0 0 -0 -0 -0 -0 0 0 0 0 0 0 0 0 0 0 0 0 0 0 0 0
0 1 2 3 2 3 4 4 7 4 4 3 3 2 1 0 0 0 0 0 0 0 -0 -0 -0 -0 0 0 0 0 0 0 0 0 0 0 0 0 0 0 0 0 0
0 1 2 2 3 3 3 4 3 1 1 2 2 1 0 0 0 0 -0 0 0 -0 0 0 0 0 0 0 0 0 0 0 0 0 0 0 0 0 0 0 0 0 0
1 1 2 2 2 3 3 4 1 2 2 3 2 1 1 1 1 0 0 0 0 0 0 0 0 0 0 0 0 0 0 0 0 0 0 0 0 0 0 0 0 0 0
2 1 2 3 4 4 4 3 3 2 2 2 1 1 0 0 0 0 0 0 0 0 0 0 0 0 0 0 0 0 0 0 0 0 0 0 0 0 0 0 0 0 0
Wind_Speed_500mb
42 51 47 42 41 37 34 33 41 44 42 38 32 27 24 24 26 28 32 33 32 33 36 32 29 22 21 20 19 20 20 19 20 22 20 20 22 23 25 23 25 11 17
52 53 48 43 42 38 36 36 41 44 42 36 32 26 23 25 27 31 34 32 29 32 33 29 28 19 18 19 20 21 22 21 22 23 21 22 23 23 23 22 23 14 17
52 56 51 48 44 40 40 39 40 40 37 35 30 25 23 26 29 32 33 32 31 32 30 28 26 21 20 21 20 22 23 23 25 23 23 14 13 21 21 21 20 19 18
52 58 56 53 47 42 41 40 37 34 34 32 30 27 27 28 31 34 33 31 30 29 27 26 25 23 22 22 22 23 24 25 25 24 21 16 12 18 20 18 18 17 15
51 59 59 56 50 45 42 40 34 31 32 33 32 31 30 31 34 35 32 29 28 27 26 26 25 25 25 24 25 26 26 26 24 23 14 13 13 11 16 15 14 12 10
48 49 59 57 51 45 40 37 31 28 29 32 33 31 31 33 35 35 31 27 26 25 25 25 26 27 26 27 28 27 24 22 20 9 8 6 10 11 10 12 11 8 6
46 47 59 57 53 47 41 37 30 28 27 28 29 31 31 34 36 34 29 25 23 23 23 24 24 25 26 27 28 25 21 18 17 8 6 8 7 7 6 5 3 2 1
46 47 59 57 53 49 43 38 32 28 26 26 28 28 30 32 34 32 29 25 22 20 22 23 23 24 25 26 26 24 20 17 12 11 7 6 16 10 8 5 4 4 6
45 47 57 59 55 50 45 40 35 30 25 23 24 25 27 29 31 30 27 25 23 22 22 24 25 26 27 28 29 26 22 19 17 13 9 6 18 15 14 12 11 10 11
48 47 51 54 56 53 49 43 38 33 28 24 22 23 25 28 28 28 26 26 24 23 24 26 27 28 28 29 32 31 29 23 17 19 16 18 18 17 18 20 21 20 21
48 49 50 52 55 49 48 48 41 36 31 27 25 25 26 29 29 29 28 26 24 25 25 27 28 29 29 29 32 34 31 22 23 21 22 30 24 24 25 26 27 28 30
54 51 51 50 50 48 42 50 47 43 39 36 32 31 30 28 29 27 29 28 27 26 25 27 30 32 32 25 27 33 33 27 29 27 26 36 30 31 33 36 37 37 39
51 48 50 51 50 49 43 45 41 39 37 40 39 37 32 28 26 27 25 33 32 31 25 28 30 30 27 26 28 25 25 31 29 28 30 45 39 39 40 41 42 43 44
54 51 53 50 52 52 43 43 41 40 39 35 35 38 30 28 27 26 24 25 28 26 26 25 23 24 26 28 28 27 29 29 28 28 30 44 39 41 39 37 41 46 48
51 50 52 53 56 56 46 40 40 38 38 35 35 38 33 29 28 27 26 24 25 26 27 26 25 24 23 25 26 25 27 31 31 30 29 42 34 32 30 37 41 43 42
46 48 50 53 56 61 50 41 40 38 33 35 33 33 39 29 26 24 24 22 23 23 23 24 21 21 20 21 26 24 25 28 29 29 27 29 36 35 40 45 47 49 48
44 43 50 53 53 55 50 41 35 32 35 35 35 41 41 39 31 28 23 22 20 20 25 26 26 24 21 22 23 22 25 27 28 27 29 31 32 42 51 41 43 42 50
41 44 46 48 50 52 48 41 42 37 31 31 32 32 40 41 37 29 23 22 19 23 22 22 22 26 22 25 28 28 32 34 30 31 33 34 32 30 34 45 44 38 48
43 40 42 45 45 50 46 52 44 36 31 31 31 30 31 32 30 30 29 23 22 20 17 8 6 13 23 28 38 44 46 41 34 31 33 32 29 28 28 31 42 39 36
39 39 41 48 42 43 49 47 34 31 28 28 29 33 37 42 44 42 36 28 23 3 15 19 10 5 18 33 43 51 47 40 33 31 31 29 26 26 26 30 31 29 42
38 39 44 44 53 55 55 43 34 33 32 36 31 37 41 43 44 47 39 14 9 10 15 12 18 18 34 44 46 41 34 37 32 26 24 21 19 17 25 25 28 28 28
43 43 44 45 50 56 47 34 33 42 29 26 29 36 32 31 40 47 44 34 33 8 29 7 22 41 43 41 31 33 35 26 30 14 19 21 23 24 27 32 36 36 37
46 48 40 41 49 46 38 33 36 30 33 28 30 31 27 19 23 35 27 25 20 21 31 36 45 37 26 29 26 16 23 31 36 33 19 32 31 31 41 38 36 36 36
43 37 38 42 46 41 41 33 33 29 27 26 24 30 28 26 24 23 30 29 26 38 52 53 43 36 29 17 21 18 20 25 25 38 30 35 44 40 39 45 47 47 48
36 39 43 45 39 35 37 29 24 25 26 24 28 34 41 33 30 26 25 29 40 52 40 32 28 22 20 16 16 21 22 22 28 33 53 59 49 47 46 50 49 46 46
39 42 41 46 44 35 35 40 30 25 32 36 35 40 36 32 32 34 34 33 33 28 23 21 20 24 28 32 34 32 25 28 34 39 47 51 65 54 47 48 45 45 42
Wind_Direction_500mb
163 172 174 172 168 165 162 159 168 170 170 168 162 155 145 141 146 151 150 149 151 158 158 154 151 135 144 148 139 134 127 124 124 117 115 112 109 104 100 98 97 87 94
163 174 178 176 171 168 163 160 166 169 170 171 169 163 154 151 153 156 155 154 153 154 159 164 164 158 156 159 148 138 130 132 124 115 118 110 107 107 103 99 102 111 92
164 174 177 178 173 170 163 161 164 169 174 175 175 171 164 161 161 161 161 159 154 155 157 162 165 164 160 155 149 140 136 134 118 115 116 104 109 106 103 102 102 101 96
167 173 177 178 174 172 166 164 164 170 177 180 181 178 172 168 167 165 165 164 162 164 169 171 171 166 160 157 153 145 142 132 123 122 92 139 138 110 109 109 108 104 101
167 173 177 176 175 172 167 165 168 172 176 181 181 179 175 171 171 169 168 168 171 173 175 174 171 166 164 163 157 150 144 134 133 120 150 146 150 126 118 112 105 99 92
162 167 175 175 175 173 169 168 172 174 175 175 177 178 176 174 174 172 172 173 177 180 180 177 174 172 171 171 165 158 149 144 141 131 162 182 152 187 138 126 118 110 93
162 168 175 175 176 174 173 172 175 173 172 176 179 177 177 177 176 176 177 177 181 185 186 183 181 179 179 178 175 172 164 158 127 197 191 199 215 182 173 151 153 153 302
166 169 178 177 178 177 177 177 178 176 172 175 179 180 180 180 180 181 182 184 189 192 193 191 189 188 186 188 188 185 180 176 156 202 198 185 213 214 218 216 247 276 294
169 167 177 178 181 181 182 184 185 181 177 175 178 183 185 185 185 189 192 196 200 201 200 199 198 196 195 195 195 195 195 193 174 228 209 205 223 227 239 247 260 272 279
171 172 173 178 183 185 187 190 191 189 185 180 179 183 187 189 193 195 198 202 205 208 211 210 208 207 207 206 206 208 210 209 209 230 241 232 235 245 256 263 266 269 271
174 175 176 179 183 181 188 191 193 193 191 186 183 185 189 195 198 201 202 205 209 212 216 217 215 215 216 218 221 223 223 224 233 238 237 251 256 266 272 277 279 280 280
175 178 181 181 183 182 187 193 193 196 195 194 195 193 194 193 201 207 214 208 210 213 216 216 216 217 218 223 236 235 234 232 237 240 244 254 260 263 270 272 277 281 282
176 177 183 183 184 186 189 191 189 194 197 200 201 204 193 201 205 202 217 217 218 218 219 223 219 221 221 214 226 238 242 241 244 248 252 255 258 265 270 273 276 278 280
181 182 186 188 190 189 192 192 194 195 198 201 205 207 201 203 208 204 213 221 221 224 213 216 222 217 225 228 223 231 242 241 247 252 255 264 261 264 271 280 283 282 284
184 188 193 194 199 199 193 197 196 203 199 202 206 211 207 209 213 211 217 218 227 225 226 219 218 227 229 242 245 244 254 256 257 257 262 272 271 271 273 288 287 283 282
189 193 196 200 205 206 200 201 204 203 208 203 208 211 212 211 227 223 225 229 230 230 230 231 232 237 245 244 257 258 258 257 260 261 267 271 279 271 282 291 286 281 283
195 196 203 205 208 208 203 207 205 215 208 210 210 214 216 220 226 219 230 233 236 237 229 234 228 237 251 259 267 267 269 270 265 266 270 269 274 290 290 284 289 279 288
199 200 201 205 212 211 206 210 205 212 210 219 218 217 218 221 218 233 234 240 243 237 244 242 247 261 269 274 278 284 287 271 268 273 276 279 276 274 280 297 297 293 290
202 202 202 207 212 214 206 218 218 207 204 211 216 218 218 215 220 219 221 229 239 250 256 240 292 298 299 308 297 274 273 275 272 275 277 281 283 284 284 285 299 308 295
202 201 206 211 203 210 213 212 211 202 204 208 207 214 214 217 221 219 215 205 196 158 325 341 98 108 312 298 282 279 285 282 279 282 283 287 284 283 297 291 302 310 307
199 200 212 213 206 213 211 207 196 196 192 202 210 222 232 236 241 239 219 190 225 81 3 318 294 341 279 277 285 294 287 285 289 283 277 278 278 290 291 303 310 293 300
207 211 218 219 212 212 212 199 200 218 199 199 202 218 239 242 257 251 238 254 234 302 287 154 247 277 271 270 269 280 289 288 276 293 284 288 287 294 294 292 293 296 295
207 213 205 212 217 209 193 184 183 186 186 185 198 214 220 238 256 259 245 226 222 176 184 204 229 254 254 251 273 280 298 293 303 295 279 298 288 300 299 299 295 293 292
207 200 196 201 209 199 196 190 191 192 190 198 194 214 185 161 149 146 158 169 189 199 216 233 242 251 261 270 256 264 260 278 299 303 291 293 295 300 297 296 290 290 290
188 186 191 195 190 189 185 185 200 202 202 191 190 194 183 186 197 201 207 222 222 228 238 233 239 244 272 280 286 294 298 300 290 282 295 302 295 297 295 295 292 294 294
171 184 176 179 179 176 177 182 184 200 212 202 204 193 196 203 209 213 220 227 227 224 233 241 260 280 291 295 292 297 299 295 293 289 286 291 298 303 300 296 299 299 296
Wind_Speed_850mb
42 51 47 42 41 37 34 33 41 44 42 38 32 27 24 24 26 28 32 33 32 33 36 32 29 22 21 20 19 20 20 19 20 22 20 20 22 23 25 23 25 11 17
52 53 48 43 42 38 36 36 41 44 42 36 32 26 23 25 27 31 34 32 29 32 33 29 28 19 18 19 20 21 22 21 22 23 21 22 23 23 23 22 23 14 17
52 56 51 48 44 40 40 39 40 40 37 35 30 25 23 26 29 32 33 32 31 32 30 28 26 21 20 21 20 22 23 23 25 23 23 14 13 21 21 21 20 19 18
52 58 56 53 47 42 41 40 37 34 34 32 30 27 27 28 31 34 33 31 30 29 27 26 25 23 22 22 22 23 24 25 25 24 21 16 12 18 20 18 18 17 15
51 59 59 56 50 45 42 40 34 31 32 33 32 31 30 31 34 35 32 29 28 27 26 26 25 25 25 24 25 26 26 26 24 23 14 13 13 11 16 15 14 12 10
48 49 59 57 51 45 40 37 31 28 29 32 33 31 31 33 35 35 31 27 26 25 25 25 26 27 26 27 28 27 24 22 20 9 8 6 10 11 10 12 11 8 6
46 47 59 57 53 47 41 37 30 28 27 28 29 31 31 34 36 34 29 25 23 23 23 24 24 25 26 27 28 25 21 18 17 8 6 8 7 7 6 5 3 2 1
46 47 59 57 53 49 43 38 32 28 26 26 28 28 30 32 34 32 29 25 22 20 22 23 23 24 25 26 26 24 20 17 12 11 7 6 16 10 8 5 4 4 6
45 47 57 59 55 50 45 40 35 30 25 23 24 25 27 29 31 30 27 25 23 22 22 24 25 26 27 28 29 26 22 19 17 13 9 6 18 15 14 12 11 10 11
48 47 51 54 56 53 49 43 38 33 28 24 22 23 25 28 28 28 26 26 24 23 24 26 27 28 28 29 32 31 29 23 17 19 16 18 18 17 18 20 21 20 21
48 49 50 52 55 49 48 48 41 36 31 27 25 25 26 29 29 29 28 26 24 25 25 27 28 29 29 29 32 34 31 22 23 21 22 30 24 24 25 26 27 28 30
54 51 51 50 50 48 42 50 47 43 39 36 32 31 30 28 29 27 29 28 27 26 25 27 30 32 32 25 27 33 33 27 29 27 26 36 30 31 33 36 37 37 39
51 48 50 51 50 49 43 45 41 39 37 40 39 37 32 28 26 27 25 33 32 31 25 28 30 30 27 26 28 25 25 31 29 28 30 45 39 39 40 41 42 43 44
54 51 53 50 52 52 43 43 41 40 39 35 35 38 30 28 27 26 24 25 28 26 26 25 23 24 26 28 28 27 29 29 28 28 30 44 39 41 39 37 41 46 48
51 50 52 53 56 56 46 40 40 38 38 35 35 38 33 29 28 27 26 24 25 26 27 26 25 24 23 25 26 25 27 31 31 30 29 42 34 32 30 37 41 43 42
46 48 50 53 56 61 50 41 40 38 33 35 33 33 39 29 26 24 24 22 23 23 23 24 21 21 20 21 26 24 25 28 29 29 27 29 36 35 40 45 47 49 48
44 43 50 53 53 55 50 41 35 32 35 35 35 41 41 39 31 28 23 22 20 20 25 26 26 24 21 22 23 22 25 27 28 27 29 31 32 42 51 41 43 42 50
41 44 46 48 50 52 48 41 42 37 31 31 32 32 40 41 37 29 23 22 19 23 22 22 22 26 22 25 28 28 32 34 30 31 33 34 32 30 34 45 44 38 48
43 40 42 45 45 50 46 52 44 36 31 31 31 30 31 32 30 30 29 23 22 20 17 8 6 13 23 28 38 44 46 41 34 31 33 32 29 28 28 31 42 39 36
39 39 41 48 42 43 49 47 34 31 28 28 29 33 37 42 44 42 36 28 23 3 15 19 10 5 18 33 43 51 47 40 33 31 31 29 26 26 26 30 31 29 42
38 39 44 44 53 55 55 43 34 33 32 36 31 37 41 43 44 47 39 14 9 10 15 12 18 18 34 44 46 41 34 37 32 26 24 21 19 17 25 25 28 28 28
43 43 44 45 50 56 47 34 33 42 29 26 29 36 32 31 40 47 44 34 33 8 29 7 22 41 43 41 31 33 35 26 30 14 19 21 23 24 27 32 36 36 37
46 48 40 41 49 46 38 33 36 30 33 28 30 31 27 19 23 35 27 25 20 21 31 36 45 37 26 29 26 16 23 31 36 33 19 32 31 31 41 38 36 36 36
43 37 38 42 46 41 41 33 33 29 27 26 24 30 28 26 24 23 30 29 26 38 52 53 43 36 29 17 21 18 20 25 25 38 30 35 44 40 39 45 47 47 48
36 39 43 45 39 35 37 29 24 25 26 24 28 34 41 33 30 26 25 29 40 52 40 32 28 22 20 16 16 21 22 22 28 33 53 59 49 47 46 50 49 46 46
39 42 41 46 44 35 35 40 30 25 32 36 35 40 36 32 32 34 34 33 33 28 23 21 20 24 28 32 34 32 25 28 34 39 47 51 65 54 47 48 45 45 42
Wind_Direction_850mb
163 172 174 172 168 165 162 159 168 170 170 168 162 155 145 141 146 151 150 149 151 158 158 154 151 135 144 148 139 134 127 124 124 117 115 112 109 104 100 98 97 87 94
163 174 178 176 171 168 163 160 166 169 170 171 169 163 154 151 153 156 155 154 153 154 159 164 164 158 156 159 148 138 130 132 124 115 118 110 107 107 103 99 102 111 92
164 174 177 178 173 170 163 161 164 169 174 175 175 171 164 161 161 161 161 159 154 155 157 162 165 164 160 155 149 140 136 134 118 115 116 104 109 106 103 102 102 101 96
167 173 177 178 174 172 166 164 164 170 177 180 181 178 172 168 167 165 165 164 162 164 169 171 171 166 160 157 153 145 142 132 123 122 92 139 138 110 109 109 108 104 101
167 173 177 176 175 172 167 165 168 172 176 181 181 179 175 171 171 169 168 168 171 173 175 174 171 166 164 163 157 150 144 134 133 120 150 146 150 126 118 112 105 99 92
162 167 175 175 175 173 169 168 172 174 175 175 177 178 176 174 174 172 172 173 177 180 180 177 174 172 171 171 165 158 149 144 141 131 162 182 152 187 138 126 118 110 93
162 168 175 175 176 174 173 172 175 173 172 176 179 177 177 177 176 176 177 177 181 185 186 183 181 179 179 178 175 172 164 158 127 197 191 199 215 182 173 151 153 153 302
166 169 178 177 178 177 177 177 178 176 172 175 179 180 180 180 180 181 182 184 189 192 193 191 189 188 186 188 188 185 180 176 156 202 198 185 213 214 218 216 247 276 294
169 167 177 178 181 181 182 184 185 181 177 175 178 183 185 185 185 189 192 196 200 201 200 199 198 196 195 195 195 195 195 193 174 228 209 205 223 227 239 247 260 272 279
171 172 173 178 183 185 187 190 191 189 185 180 179 183 187 189 193 195 198 202 205 208 211 210 208 207 207 206 206 208 210 209 209 230 241 232 235 245 256 263 266 269 271
174 175 176 179 183 181 188 191 193 193 191 186 183 185 189 195 198 201 202 205 209 212 216 217 215 215 216 218 221 223 223 224 233 238 237 251 256 266 272 277 279 280 280
175 178 181 181 183 182 187 193 193 196 195 194 195 193 194 193 201 207 214 208 210 213 216 216 216 217 218 223 236 235 234 232 237 240 244 254 260 263 270 272 277 281 282
176 177 183 183 184 186 189 191 189 194 197 200 201 204 193 201 205 202 217 217 218 218 219 223 219 221 221 214 226 238 242 241 244 248 252 255 258 265 270 273 276 278 280
181 182 186 188 190 189 192 192 194 195 198 201 205 207 201 203 208 204 213 221 221 224 213 216 222 217 225 228 223 231 242 241 247 252 255 264 261 264 271 280 283 282 284
184 188 193 194 199 199 193 197 196 203 199 202 206 211 207 209 213 211 217 218 227 225 226 219 218 227 229 242 245 244 254 256 257 257 262 272 271 271 273 288 287 283 282
189 193 196 200 205 206 200 201 204 203 208 203 208 211 212 211 227 223 225 229 230 230 230 231 232 237 245 244 257 258 258 257 260 261 267 271 279 271 282 291 286 281 283
195 196 203 205 208 208 203 207 205 215 208 210 210 214 216 220 226 219 230 233 236 237 229 234 228 237 251 259 267 267 269 270 265 266 270 269 274 290 290 284 289 279 288
199 200 201 205 212 211 206 210 205 212 210 219 218 217 218 221 218 233 234 240 243 237 244 242 247 261 269 274 278 284 287 271 268 273 276 279 276 274 280 297 297 293 290
202 202 202 207 212 214 206 218 218 207 204 211 216 218 218 215 220 219 221 229 239 250 256 240 292 298 299 308 297 274 273 275 272 275 277 281 283 284 284 285 299 308 295
202 201 206 211 203 210 213 212 211 202 204 208 207 214 214 217 221 219 215 205 196 158 325 341 98 108 312 298 282 279 285 282 279 282 283 287 284 283 297 291 302 310 307
199 200 212 213 206 213 211 207 196 196 192 202 210 222 232 236 241 239 219 190 225 81 3 318 294 341 279 277 285 294 287 285 289 283 277 278 278 290 291 303 310 293 300
207 211 218 219 212 212 212 199 200 218 199 199 202 218 239 242 257 251 238 254 234 302 287 154 247 277 271 270 269 280 289 288 276 293 284 288 287 294 294 292 293 296 295
207 213 205 212 217 209 193 184 183 186 186 185 198 214 220 238 256 259 245 226 222 176 184 204 229 254 254 251 273 280 298 293 303 295 279 298 288 300 299 299 295 293 292
207 200 196 201 209 199 196 190 191 192 190 198 194 214 185 161 149 146 158 169 189 199 216 233 242 251 261 270 256 264 260 278 299 303 291 293 295 300 297 296 290 290 290
188 186 191 195 190 189 185 185 200 202 202 191 190 194 183 186 197 201 207 222 222 228 238 233 239 244 272 280 286 294 298 300 290 282 295 302 295 297 295 295 292 294 294
171 184 176 179 179 176 177 182 184 200 212 202 204 193 196 203 209 213 220 227 227 224 233 241 260 280 291 295 292 297 299 295 293 289 286 291 298 303 300 296 299 299 296